Tracking 28348 objects as of 8-Dec-2023
HD Live streaming from Space Station
objects crossing your sky now

STARLINK-30711

Track STARLINK-30711 now!
10-day predictions
STARLINK-30711 is classified as:


NORAD ID: 57940
Int'l Code: 2023-148F
Perigee: 515.4 km
Apogee: 518.4 km
Inclination: 53.1 °
Period: 94.8 minutes
Semi major axis: 6887 km
RCS: Unknown
Launch date: September 25, 2023
Source: United States (US)
Launch site: AIR FORCE WESTERN TEST RANGE (AFWTR)
Your satellite tracking list
Your tracking list is empty




NASA's NSSDC Master Catalog

Two Line Element Set (TLE):
1 57940U 23148F   23341.72566657  .00013581  00000-0  66044-3 0  9991
2 57940  53.0535 238.2868 0002134 122.8585 237.2615 15.18704988 12488
Source of the keplerian elements: AFSPC